Location: Home
(42.5358°N, 72.7383°W)
Time: 13:38:26
(UTC-05:00)

deb Explorer IX - Pass Details

Date: 05 December 2021
Orbit: 544 x 1082 km, 38.8° (Epoch: 16 January)

Event Time Altitude Azimuth Distance (km) Brightness Sun altitude
Rises 07:53:58 0° 204° (SSW) 3,302 ? 6.5°
Reaches altitude 10° 07:57:48 10° 179° (S) 2,240 ? 7.1°
Maximum altitude 08:00:20 14° 150° (SSE) 1,915 ? 7.4°
Drops below altitude 10° 08:02:44 10° 120° (ESE) 2,079 ? 7.8°
Sets 08:06:02 0° 94° (E) 2,890 ? 8.2°
